Location: Chilaantkari
(41.8864°N, 44.8886°E)
Time: 20:37:44
(UTC+00:00)

Daily predictions for brighter satellites

Satellite Brightness Start Highest point End
(mag) Time Altitude Azimuth Time Altitude Azimuth Time Altitude Azimuth
SL-19 R/B 4.4 14:15:53 10° SSE 14:21:57 81° ENE 14:27:43 10° NNW
USA 267 3.8 14:17:04 10° SE 14:23:33 65° SW 14:30:04 10° NW
SMAP 3.0 14:19:25 10° SSE 14:24:03 79° ENE 14:28:43 10° N
ACS3 Solar Sail 2.8 14:20:33 10° ESE 14:25:40 26° ENE 14:30:49 10° N
SL-16 R/B 4.4 14:21:37 10° N 14:26:50 28° WNW 14:32:01 10° WSW
Lacrosse 5 3.0 14:23:35 10° NW 14:28:31 49° SW 14:33:24 10° SSE
COSMOS 2428 3.2 14:24:20 10° SW 14:29:58 64° WNW 14:35:39 10° NNE
ATLAS CENTAUR R/B 4.2 14:26:47 10° WNW 14:30:05 24° WSW 14:33:22 10° SSW
Cosmos 1634 Rocket 4.1 14:27:24 10° N 14:33:46 90° SSW 14:40:04 10° S
CZ-2D R/B 3.9 14:30:28 10° S 14:34:42 70° WSW 14:38:57 10° NNW
Cosmos 1953 2.5 14:31:48 10° N 14:35:20 39° ENE 14:38:50 10° SSE
DNEPR-1 R/B 4.3 14:31:28 10° NNW 14:35:50 34° NE 14:39:45 10° ESE
SKYMED 2 4.2 14:33:10 10° NNE 14:37:10 35° E 14:41:08 10° SSE
Cosmos 990 Rocket 4.0 14:34:04 10° NNW 14:39:19 78° ENE 14:44:33 10° SSE
Cosmos 1174 4.0 14:38:45 10° NNW 14:42:25 49° ENE 14:46:51 10° SE
IGS 5A 3.3 14:39:43 10° SSE 14:43:42 73° ENE 14:47:43 10° N
Meteor 1-16 Rocket 4.2 14:41:57 10° N 14:47:28 81° E 14:53:07 10° SSE
AQUARIUS 4.2 14:43:05 10° SSE 14:47:31 88° WSW 14:51:58 10° NNW
Cosmos 2142 Rocket 4.5 14:42:30 10° N 14:48:42 65° E 14:54:57 10° SSE
Cosmos 1707 Rocket 3.6 14:53:27 10° S 14:57:54 89° E 15:02:21 10° N
Okean 3 3.5 14:55:07 10° S 14:59:11 78° W 15:03:20 10° N
Cosmos 1937 Rocket 4.0 14:55:30 10° N 15:00:14 36° ENE 15:04:58 10° SE
Delta 2 Rocket 4.4 14:57:44 10° SW 15:00:26 24° S 15:02:45 12° ESE
Meteor 1-31 Rocket 3.1 14:58:59 10° SE 15:02:13 34° ENE 15:05:29 10° N
Okean 2 3.3 15:00:14 10° S 15:04:10 86° W 15:08:09 10° N
Cosmos 1943 Rocket 2.1 15:00:34 10° NNW 15:06:15 81° ENE 15:11:51 10° SSE
CZ-4 R/B 4.2 15:02:59 10° SSE 15:06:58 72° ENE 15:10:58 10° N
Cosmos 2237 Rocket 2.4 15:01:34 10° SSW 15:07:15 78° WNW 15:12:58 10° NNE
Cosmos 1862 Rocket 4.0 15:11:29 10° SSW 15:15:47 64° W 15:20:10 10° N
NOAA 6 4.0 15:13:08 10° SSE 15:18:07 59° ENE 15:23:10 10° N
CZ-4C R/B 1.7 15:14:32 10° SW 15:18:43 82° NW 15:22:58 15° NNE
RESURS DK-1 2.2 15:15:11 10° NNW 15:19:14 88° WSW 15:23:14 10° SSE
Cosmos 2278 Rocket 2.8 15:14:21 10° NNW 15:19:56 60° WSW 15:25:29 10° S
Cosmos 1825 4.0 15:18:31 10° SE 15:18:46 11° SE 15:18:46 11° SE
Nadezhda 4 Rocket 3.9 15:15:38 10° S 15:21:42 78° E 15:27:51 10° N
COSMO-SKYMED 1 2.9 15:21:00 10° N 15:25:20 69° WNW 15:29:39 10° SSW
BlueWalker 3 3.4 15:22:55 10° NNW 15:25:44 20° NNE 15:25:49 20° NNE
CZ-4B R/B 3.4 15:22:41 10° SSE 15:26:18 69° ENE 15:29:51 10° N
Meteor 1-24 Rocket 4.4 15:26:08 10° SSE 15:31:17 33° E 15:33:33 25° NE
ISS -2.3 15:29:18 10° W 15:32:14 28° NNW 15:33:12 24° N
ATLAS 5 CENTAUR R/B 0.6 15:30:16 10° SSW 15:33:23 83° SE 15:34:04 53° NE
YAOGAN 1 2.4 15:29:25 10° SSE 15:33:39 72° ENE 15:37:56 10° N
SPOT 1/Viking Rocket 3.6 15:32:49 10° SSE 15:37:49 53° ENE 15:42:49 10° N
Landsat 7 4.2 15:33:31 10° S 15:38:09 64° W 15:42:50 10° NNW
YAOGAN 11 4.0 15:36:53 26° NNE 15:39:11 62° ESE 15:43:25 10° S
Meteor 2-5 Rocket 4.2 15:36:04 10° SSE 15:41:15 37° E 15:42:28 33° ENE
Cosmos 1703 Rocket 3.4 15:40:06 10° S 15:44:32 80° E 15:47:56 17° N
Resurs 1-3 3.4 15:44:50 10° SSE 15:49:05 64° ENE 15:53:23 10° N
Cosmos 841 Rocket 4.0 15:44:53 10° SSW 15:50:03 59° WNW 15:54:57 12° NNE
Cosmos 1656 Rocket 3.8 15:45:45 10° NNW 15:51:03 47° ENE 15:51:56 44° E
Cosmos 1898 Rocket 4.1 15:46:52 10° NNW 15:52:03 58° WSW 15:57:14 10° S
SL-16 R/B 2.1 15:50:44 10° SSW 15:56:23 78° ESE 15:58:59 34° NNE
Cosmos 839 Rocket 4.1 15:50:39 10° SSW 15:57:18 59° ESE 15:59:15 42° ENE
Cosmos 1814 Rocket 4.1 15:54:45 10° S 15:59:44 51° ESE 15:59:44 51° ESE
Cosmos 1703 3.9 15:57:35 10° SSW 16:00:59 46° W 16:02:21 29° NNW
BREEZE-M DEB (TANK) 3.7 15:50:41 10° WSW 16:05:30 68° NNW 16:06:29 53° NE
Cosmos 1092 Rocket 3.9 16:01:22 10° S 16:07:32 89° E 16:13:47 10° N
Meteor 2-6 4.5 16:02:00 10° N 16:07:35 79° E 16:13:06 10° SSE
ACS3 Solar Sail 2.6 16:02:34 10° S 16:08:48 55° W 16:15:06 10° NNW
ATLAS 2AS CENTAUR R/B 2.5 16:03:00 10° NNW 16:09:46 67° NE 16:11:35 48° ESE
BREEZE-M DEB 3.2 16:10:05 10° SW 16:12:58 74° SSE 16:12:58 74° SSE
CBERS 1 LM4 rocket 4.3 16:11:47 29° SSE 16:14:26 83° ENE 16:19:42 10° NNW
Cosmos 1818 3.4 16:09:27 10° NNW 16:14:57 83° NE 16:15:37 69° SE
Cosmos 1437 Rocket 4.4 16:11:53 10° SSW 16:13:34 25° SSW 16:13:34 25° SSW
Cosmos 2369 Rocket 2.9 16:11:18 10° NNW 16:15:05 38° NNE 16:15:05 38° NNE
BREEZE-M TANK 4.4 16:32:05 10° W 16:36:13 48° SSW 16:40:37 27° SSE
Cosmos 2297 4.1 16:33:56 10° NNW 16:38:18 54° NNW 16:38:18 54° NNW
CZ-4C R/B 4.3 17:05:00 10° WNW 17:08:01 17° NNW 17:08:01 17° NNW
